CAPE
24 25 20 14 15 8 4 5 11 0 0 2 3 2 3 3 11 3 11 17 10 0 0 0 0 0 8 0 0 0 25 0 0 0 41 69 69 86
5 17 30 34 28 16 12 10 11 4 3 1 0 3 1 4 5 3 5 8 5 6 0 0 0 0 0 0 0 0 1 16 12 0 0 0 33 64
13 30 24 21 22 23 22 15 12 7 4 1 1 1 1 5 3 7 8 9 10 2 12 1 0 0 0 0 0 0 0 0 1 0 0 0 1 56
26 10 11 16 12 17 11 4 3 4 11 1 0 2 4 4 5 5 10 10 10 4 6 1 0 0 0 0 0 0 0 0 0 0 0 0 1 46
8 9 12 13 7 1 0 0 0 0 0 2 2 3 3 4 5 5 4 13 11 12 6 0 0 0 0 0 0 0 0 0 0 0 0 0 0 14
11 2 3 0 0 0 0 0 0 0 0 0 2 1 2 4 7 0 5 19 2 6 0 0 0 0 0 0 3 0 1 0 0 0 0 0 0 3
2 2 0 0 0 0 0 0 0 0 0 1 4 5 7 12 6 3 2 1 2 2 3 2 0 3 26 9 14 0 0 0 0 0 0 0 0 10
0 0 0 0 0 0 0 0 0 0 1 4 4 3 4 2 5 3 0 0 5 2 0 0 1 9 8 15 0 0 0 0 1 0 0 0 0 0
0 0 0 0 0 0 0 0 0 0 0 0 2 9 9 7 3 8 3 4 3 1 0 1 0 0 8 12 0 0 0 0 0 0 1 0 0 1
0 0 0 0 0 0 0 0 0 0 0 0 0 0 1 1 1 1 0 2 1 1 2 0 0 0 12 12 0 0 0 0 0 0 1 0 1 3
0 0 0 0 0 0 0 0 0 0 0 0 0 2 0 0 0 2 2 2 13 2 4 2 0 1 0 9 10 0 0 0 0 0 0 0 0 0
0 0 0 0 0 0 0 0 0 0 0 0 0 0 3 7 2 0 1 8 9 4 0 2 6 1 0 0 0 3 0 0 0 0 1 0 0 7
0 0 0 0 0 0 0 0 0 0 0 1 5 2 5 11 9 3 2 3 14 4 2 0 0 0 3 1 1 2 3 0 0 0 0 0 0 0
0 0 0 0 0 0 0 0 0 0 2 1 6 5 3 2 5 3 1 1 6 4 0 0 0 0 0 7 4 2 6 6 9 4 0 0 0 0
0 0 0 0 0 0 0 0 0 0 0 0 0 4 2 6 5 6 6 1 2 2 4 2 0 0 0 0 0 0 3 9 12 0 0 5 0 0
1 2 0 0 0 0 0 0 0 0 0 0 1 2 5 5 2 3 1 0 1 2 1 0 0 1 0 0 0 0 2 12 5 0 2 2 2 4
0 0 2 7 3 2 2 0 2 0 0 0 0 2 2 2 2 1 1 0 1 3 1 1 0 2 5 1 4 0 1 8 0 5 7 7 8 5
0 2 4 7 8 6 3 1 0 1 0 0 0 0 1 2 3 1 3 1 2 1 2 1 0 1 2 0 1 5 3 0 0 1 1 3 5 6
0 2 7 11 9 4 1 0 0 0 0 0 0 0 0 0 0 3 2 3 1 1 0 0 2 0 1 1 2 0 0 8 3 1 1 1 1 6
1 3 4 6 6 2 1 1 0 1 1 0 0 1 0 0 0 0 1 2 2 1 0 0 5 0 1 0 0 0 0 0 0 0 1 2 5 0
5 5 7 7 6 3 4 4 5 2 0 0 1 1 1 1 0 0 0 0 0 0 0 0 0 0 0 0 1 1 1 0 0 0 0 3 3 3
4 4 5 5 7 3 5 8 5 7 3 2 0 1 2 2 1 0 0 0 0 0 0 0 3 3 0 1 1 0 1 1 0 0 0 0 2 13
4 6 7 6 10 7 5 3 3 4 3 2 1 1 0 0 2 0 0 0 0 0 0 0 0 3 4 0 0 1 0 0 0 0 0 0 0 0
CIN
-1 -2 -3 -2 -3 -2 -5 -7 -3 0 -1 -3 0 -2 -1 -1 0 0 -1 0 -1 0 0 0 0 0 -2 0 0 0 -2 0 0 0 -10 -2 -3 -2
-3 -2 -2 -3 -3 -3 -3 -4 -4 -3 -1 -2 -1 -2 -4 -2 -3 -2 -1 -1 -3 -1 0 0 0 0 0 0 0 0 -16 -3 -2 -2 0 -4 -22 -8
-1 -1 -3 -4 -3 -3 0 -3 -2 -2 -1 -1 -2 -1 -3 -2 -3 -1 -1 0 0 -7 -14 -11 0 0 0 0 0 0 0 0 -18 -7 0 0 -7 -7
-5 -7 -3 -4 -3 -1 -2 -5 -5 -3 -1 -4 0 -3 -3 -3 -2 -2 -1 -3 0 -6 0 -16 0 0 0 0 0 0 0 0 0 0 -1 0 -13 -5
-3 -3 -3 -3 -5 -3 -3 0 0 0 -4 -7 -4 -1 -2 -1 -3 -3 -4 -3 -2 -1 -7 0 0 0 0 0 0 0 0 0 0 0 0 0 0 -9
-2 -2 -3 -1 0 0 0 0 0 0 -3 -5 -3 -5 -5 -4 -3 -3 -4 -1 -2 -3 0 0 -5 0 0 0 -9 0 0 0 0 0 0 0 0 -18
-3 -3 0 0 0 0 0 0 0 0 -1 -4 -3 -1 -4 -3 -2 -5 -3 -4 -3 -2 -7 -2 0 -6 -3 -13 -1 0 0 0 0 0 0 0 0 -39
0 0 0 0 0 0 0 0 0 0 -3 -3 -4 -3 -3 -3 -5 -3 -4 0 -1 -3 0 0 -7 -9 -4 -8 0 0 0 0 0 0 0 0 0 0
0 0 0 0 0 0 0 0 -2 -4 -4 -3 -3 -3 -3 -4 -4 -2 -1 -2 -3 -3 -2 -1 0 0 -14 -6 0 0 0 0 0 0 -1 -2 -3 0
0 0 0 0 0 0 0 0 0 0 0 0 0 -2 -4 -3 -3 -5 -4 -4 -2 -2 -2 -2 0 0 -2 -1 0 0 0 0 0 0 -1 0 0 0
0 0 0 0 0 0 0 0 0 0 -1 0 0 0 -2 0 0 -2 -1 -2 -1 -4 -4 -6 0 -10 -4 -3 -1 0 0 0 0 0 0 0 -1 0
0 0 0 0 0 0 0 0 0 0 0 0 0 -7 -2 -2 -2 -1 -2 -1 -1 -1 0 -4 -5 -5 -3 0 0 -3 0 0 0 0 0 0 0 -2
0 0 -1 0 0 0 0 0 0 0 0 -2 -2 -3 -2 -1 -2 -2 -3 -3 -1 -1 -1 0 0 -2 -4 -2 -6 -1 -2 0 0 0 0 0 0 0
0 -1 -1 0 0 0 0 0 0 0 -1 -3 -2 -2 -3 -2 -1 -1 -1 -1 -1 -1 0 0 0 -1 0 -3 -3 -2 -1 -2 -9 0 0 0 0 0
0 0 0 0 0 0 0 0 0 0 0 -3 -4 -2 -2 -1 -1 0 -1 0 0 -1 0 -1 0 0 -1 -1 0 0 -3 -1 -1 -2 -1 0 0 0
0 -2 0 0 0 0 -1 -4 0 -1 0 0 -3 -1 -1 -1 -1 -1 -1 0 -3 -2 -2 0 0 -1 -1 0 0 -1 -2 -1 -1 0 -4 -2 -2 0
0 0 -2 -2 -2 -3 -3 -1 -3 -1 0 0 -3 -2 -2 -2 -2 0 -1 0 0 -2 -2 -1 -1 -1 -1 -3 -1 -1 -4 -1 0 -3 -2 -1 -1 -1
0 -1 -1 -1 -1 -2 -2 -3 -1 -5 -1 0 0 -1 -2 -2 -2 -2 -1 -1 -1 -1 -1 -1 0 0 -1 0 -1 -1 -1 0 -1 0 -2 -2 -1 -5
-1 -1 -1 -1 -1 -2 -3 -3 0 0 0 -2 0 0 -2 -3 0 -1 -1 -1 -1 -1 -1 -1 -1 0 0 -1 -1 0 0 -4 -2 -1 -1 -2 -1 -3
-1 -2 -1 -1 -1 -3 -3 -3 -4 -2 -1 0 -1 -2 -1 -2 -1 0 -2 -1 -1 -1 -1 0 0 0 0 0 0 0 0 0 -4 0 -1 0 -1 0
-2 -2 -2 -2 -3 -2 -1 -1 -1 -2 -1 -1 -2 -3 -3 -2 0 0 -1 -2 0 -1 -1 -1 0 0 0 0 0 0 0 0 0 0 0 -1 0 0
-4 -2 -2 -1 -1 -2 -1 -1 -1 -1 -2 -1 -3 -1 -2 -2 -2 0 0 -2 0 0 0 0 -1 -1 -1 -1 0 0 0 0 0 0 0 0 0 0
-2 -2 -2 -1 0 0 0 -1 -1 -1 -1 -2 -2 -2 0 -2 -2 -1 0 0 0 0 0 0 0 -1 0 -1 0 0 0 0 0 0 0 0 0 0
Wind_Speed
28 27 27 27 28 28 29 30 33 38 39 42 43 41 41 42 42 42 42 43 44 41 44 39 39 39 39 40 40 41 42 40 39 41 42 45 44 42
25 26 26 27 28 30 31 32 33 36 44 39 42 44 44 44 42 42 42 44 43 44 37 32 34 36 37 37 37 38 38 39 37 37 39 41 42 42
23 23 25 29 30 31 33 33 34 36 40 42 40 44 44 43 42 41 41 41 40 42 28 29 32 34 35 35 36 36 37 38 40 40 40 39 41 42
23 24 27 30 32 32 33 35 36 37 38 43 44 42 40 40 39 39 38 39 38 40 33 31 33 34 34 35 34 35 35 36 39 41 41 39 38 40
23 26 29 32 32 34 34 34 36 36 36 37 38 36 37 36 37 36 36 36 37 38 29 28 31 29 31 34 33 32 32 34 36 37 42 44 41 37
24 27 32 33 32 33 34 33 34 35 34 32 32 35 35 35 35 37 36 33 34 33 31 30 29 29 30 33 29 28 29 31 34 35 38 40 41 40
26 28 30 30 28 28 28 31 32 31 32 31 31 32 34 35 36 35 34 33 32 31 29 30 25 27 25 29 28 25 27 29 30 31 29 30 35 35
28 28 28 26 25 28 23 25 27 27 28 28 30 31 32 31 29 32 31 30 29 27 28 29 26 29 26 23 22 22 24 25 28 27 27 22 22 23
26 26 26 26 26 29 30 30 27 23 16 18 22 25 30 30 30 30 25 25 26 30 27 29 26 25 26 22 23 22 22 22 23 24 26 25 26 22
25 24 24 26 28 30 31 29 27 26 26 28 27 28 26 24 21 18 17 19 28 34 32 32 31 30 28 28 25 23 22 20 20 16 19 18 20 23
23 23 24 25 28 31 28 27 26 26 27 32 28 21 15 11 10 11 11 11 14 27 30 33 33 31 31 31 30 26 23 20 18 14 12 14 22 17
22 23 22 24 26 26 26 25 23 25 35 32 25 19 16 14 8 4 4 5 4 12 25 26 30 30 32 31 30 28 25 21 17 20 15 16 17 19
23 23 24 27 26 25 23 21 22 25 27 23 20 18 18 17 15 8 3 1 1 6 14 25 24 25 29 26 23 25 25 22 19 19 21 22 22 20
21 23 24 27 24 23 20 21 22 20 23 28 19 20 23 21 14 8 2 6 7 10 16 10 27 26 24 26 24 21 23 24 21 21 20 24 23 24
19 21 22 21 20 21 19 18 18 24 28 28 21 20 17 14 7 5 5 7 11 10 13 22 29 27 26 26 23 23 21 23 23 23 23 21 24 27
16 19 22 16 15 15 15 20 22 24 26 27 25 15 15 14 12 9 3 8 7 12 13 17 25 28 28 28 28 28 25 25 24 26 25 23 24 25
20 21 19 20 21 22 23 21 22 24 26 29 27 23 19 17 16 6 6 7 7 9 13 15 18 23 25 27 28 28 28 27 24 23 24 26 26 28
16 18 19 20 21 22 22 22 21 22 26 27 28 28 25 20 13 14 20 18 15 12 14 15 3 20 22 25 28 25 23 25 25 24 22 23 25 25
14 14 16 18 19 20 21 22 21 22 22 24 28 28 28 27 17 25 23 21 20 18 16 15 16 15 22 24 18 24 23 21 21 21 23 24 27 25
7 11 13 14 15 17 19 22 22 20 19 22 25 27 27 27 26 25 23 22 21 20 20 19 18 18 19 17 18 17 19 22 19 19 20 20 20 18
7 7 7 10 11 11 14 16 17 19 19 17 20 25 26 26 25 25 23 22 22 22 21 22 22 22 22 21 20 17 17 17 18 18 19 15 18 19
5 5 8 9 11 11 12 13 14 14 16 17 18 20 25 25 25 25 24 23 22 21 21 21 21 21 21 22 21 15 15 15 15 15 15 16 18 19
8 7 8 8 9 10 10 11 11 13 14 15 16 16 21 25 25 24 24 24 23 22 21 20 20 19 20 19 19 16 15 18 17 16 16 15 15 15
Wind_Direction
333 332 333 334 333 332 329 326 323 319 318 317 317 319 318 318 316 314 311 306 304 302 293 294 294 293 290 287 284 279 270 270 265 258 255 254 254 254
335 334 334 334 332 330 327 324 321 318 314 321 320 319 318 317 316 314 309 304 302 299 298 295 296 294 290 287 285 281 272 266 263 258 256 256 255 252
334 333 333 334 332 329 326 324 321 319 317 319 322 320 319 317 315 313 311 308 305 299 302 295 294 294 290 286 284 281 274 266 262 258 258 260 258 251
333 333 333 332 329 329 328 325 322 321 321 319 321 321 320 319 318 315 313 309 307 300 301 296 290 289 286 283 285 281 274 264 260 255 253 256 259 250
336 334 332 331 329 329 328 327 325 324 324 324 324 325 323 323 320 320 317 315 309 303 298 296 288 292 285 281 283 283 278 267 262 257 253 254 256 253
337 334 331 331 331 331 330 331 330 329 328 328 328 327 326 325 325 321 319 320 315 311 304 294 289 290 284 277 280 286 281 273 264 258 255 251 251 249
336 334 334 335 336 337 337 336 335 335 332 331 330 329 328 327 324 324 322 323 320 313 307 295 293 286 284 279 273 284 288 274 270 259 257 254 250 245
338 337 338 340 343 339 340 341 338 337 335 335 333 332 331 332 332 327 325 324 321 318 307 297 292 278 277 279 280 283 291 284 271 257 251 252 249 240
342 341 343 344 345 343 342 341 339 337 327 327 334 337 335 333 333 332 333 330 320 305 305 291 285 281 277 283 277 281 285 290 278 257 248 248 246 244
345 346 346 346 348 346 344 345 345 344 343 341 337 337 337 337 335 330 330 330 317 291 285 279 275 275 278 273 272 275 277 290 277 275 250 245 243 243
348 349 349 348 348 347 351 351 350 348 346 338 343 344 340 333 340 350 345 342 335 305 285 276 267 270 270 266 264 264 267 274 277 268 266 245 234 239
351 351 354 352 351 353 354 356 356 352 335 342 353 359 2 5 5 8 12 8 3 324 294 288 266 267 263 261 257 255 257 260 272 249 253 249 241 242
351 351 352 351 354 355 358 2 1 354 352 359 5 9 11 14 19 31 49 71 69 188 200 287 277 271 259 263 260 250 248 250 257 252 243 242 244 245
352 352 352 351 356 358 3 6 5 7 360 356 12 12 9 15 31 50 138 193 185 196 206 313 266 264 265 257 253 252 247 247 250 249 246 240 242 245
356 356 356 360 3 3 10 10 14 7 353 356 11 15 22 30 41 43 72 175 198 187 188 205 245 262 257 256 254 250 251 250 249 251 250 247 244 245
2 0 358 6 9 9 11 11 8 6 0 352 3 23 28 34 42 56 104 239 154 177 157 181 212 234 247 250 251 250 254 251 253 252 253 255 256 257
356 357 4 7 6 4 3 9 11 7 2 344 349 8 20 25 30 75 216 233 252 199 167 139 170 221 239 242 247 251 252 255 258 261 258 258 261 261
358 358 2 6 7 7 5 7 12 11 1 353 337 344 359 17 41 280 285 278 270 261 279 296 236 238 241 246 246 254 259 260 260 262 268 268 267 270
353 359 2 7 11 12 11 11 12 11 9 2 341 332 333 348 29 322 302 288 277 266 256 249 254 264 248 244 271 254 261 268 265 264 266 266 265 268
351 354 1 8 16 18 15 13 15 19 18 7 351 335 329 325 321 316 304 299 287 270 264 261 269 272 261 262 257 267 266 263 258 268 269 269 271 277
341 346 357 3 11 22 23 23 27 24 22 25 10 344 330 324 319 316 300 296 287 295 288 280 277 275 259 257 261 277 283 277 278 280 282 276 279 280
322 327 342 349 356 4 11 20 27 30 30 29 25 7 336 323 318 316 308 301 295 295 284 282 278 276 267 259 266 288 291 293 290 289 293 294 287 283
315 318 326 333 342 349 358 6 17 23 30 33 32 31 3 330 319 316 315 309 301 297 293 282 280 276 271 277 270 285 295 284 284 281 286 289 291 293